Simultaneous Nadir Overpasses (SNOs) Predictions

Prediction of SNOs between LANDSAT-8 and NOAA-19 Satellite Orbit:

Table of predicted SNOs for the next 14.0 days since TLE Epoch: 7/25/2020
Index Date (LANDSAT-8) Time (LANDSAT-8) Lat,Lon (LANDSAT-8) SZA (LANDSAT-8 ) Date (NOAA-19) Time (NOAA-19) Lat,Lon (NOAA-19) SZA (NOAA-19 ) Distance(km) Time Diff (sec)
1 07/26/2020 04:20:28 -79.82, -38.85 118.57 07/26/2020 04:20:27 -79.84, -38.87 118.56 1.98 1
2 07/28/2020 09:54:12 79.83, 57.79 61.95 07/28/2020 09:53:39 79.84, 57.94 61.96 3.08 33
3 07/28/2020 10:43:39 -79.83,-134.56 118.04 07/28/2020 10:44:43 -79.83,-134.68 118.03 2.43 64
4 07/30/2020 15:27:57 -79.84, 154.41 117.50 07/30/2020 15:27:00 -79.85, 154.52 117.50 2.77 57
5 07/30/2020 16:17:23 79.84, -37.96 62.51 07/30/2020 16:17:56 79.84, -38.10 62.52 2.99 33
6 08/01/2020 21:51:08 -79.84, 58.67 116.92 08/01/2020 21:51:16 -79.84, 58.66 116.92 0.32 8
7 08/04/2020 03:24:52 79.84, 155.22 63.67 08/04/2020 03:24:30 79.87, 155.12 63.68 3.66 22
8 08/04/2020 04:14:20 -79.81, -37.35 116.37 08/04/2020 04:15:32 -79.83, -37.22 116.31 3.35 72
9 08/06/2020 08:58:37 -79.85,-108.13 115.71 08/06/2020 08:57:49 -79.87,-108.09 115.71 1.82 48
